Torna al catalogo

FENGYUN 1C DEB

AttivoPO
NORAD 30661·DEBRIS·🇨🇳 China

Lanciato May 10, 1999 da Taiyuan Satellite Launch Center

Loading…

Prossimi Passaggi (prossime 24 ore)

TLE

AggiornatoSource: Space-Track

Epoca: Sep 13, 2026, 12:40 UTC

1 30661U 99025APT 26256.52802182  .00000105  00000-0  64591-4 0  9995
2 30661  99.4869  97.6688 0143744 351.1593   8.7054 14.21319318 18069

Traccia FENGYUN 1C DEB in tempo reale con AllMySat

Download on the App Store